Chania/Souda, Greece

12:46 PM EET on February 22, 2017 (GMT +0200)
Souda

Weather History for LGSA - January, 2013

Change the Weather History Date:

Thursday, January 31, 2013

  Actual Average Record
Temperature  
Mean Temperature 52 °F -  
Max Temperature 60 °F 59 °F 69 °F (2015)
Min Temperature 45 °F 46 °F 37 °F (2008)
Degree Days  
Heating Degree Days 12    
Growing Degree Days 2 (Base 50)    
Moisture  
Dew Point 44 °F    
Average Humidity 71    
Maximum Humidity 87    
Minimum Humidity 41    
Precipitation  
Precipitation 0.00 in 0.15 in - ()
Sea Level Pressure  
Sea Level Pressure 29.92 in    
Wind  
Wind Speed 6 mph ()    
Max Wind Speed 23 mph    
Max Gust Speed 34 mph    
Visibility 6.2 miles    
Events      
Averages and records for this station are not official NWS values.
T = Trace of Precipitation, MM = Missing Value Source: Averaged Metar Reports

Daily Weather History Graph

Daily Weather History Graph

Search for Another Location

Airport or City:

Trip Planner

Search our weather history database for the weather conditions in past years. The results will help you decide how hot, cold, wet, or windy it might be!

Date:

Astronomy

Jan. 31, 2013 Rise Set
Actual Time 7:23 AM EET 5:50 PM EET
Civil Twilight 6:57 AM EET 6:17 PM EET
Nautical Twilight 6:26 AM EET 6:47 PM EET
Astronomical Twilight 5:56 AM EET 7:17 PM EET
Moon 10:19 PM EET (1/31) 9:24 AM EET (1/31)
Length of Visible Light 11h 20m
Length of Day
10h 26m
Waning Gibbous, 82% of the Moon is Illuminated
Jan 31
Waning Gibbous
Feb 3
Last Quarter
Feb 10
New
Feb 17
First Quarter
Feb 25
Full

Hourly Weather History & Observations

Time (EET) Temp. Windchill Dew Point Humidity Pressure Visibility Wind Dir Wind Speed Gust Speed Precip Events Conditions
12:20 AM 48.2 °F - 42.8 °F 82% 29.95 in 6.2 mi Calm Calm - N/A   Mostly Cloudy
12:50 AM 48.2 °F - 41.0 °F 76% 29.98 in 6.2 mi WNW 4.6 mph - N/A   Mostly Cloudy
1:20 AM 48.2 °F - 41.0 °F 76% 29.98 in 6.2 mi West 4.6 mph - N/A   Mostly Cloudy
1:50 AM 46.4 °F 44.3 °F 42.8 °F 87% 29.95 in 6.2 mi WNW 4.6 mph - N/A   Scattered Clouds
2:00 AM 47 °F - 43 °F 80% 29.99 in 6 mi WNW 4.6 mph - -   Scattered Clouds
2:20 AM 46.4 °F - 42.8 °F 87% 29.95 in 6.2 mi Calm Calm - N/A   Scattered Clouds
2:50 AM 46.4 °F - 42.8 °F 87% 29.95 in 6.2 mi Calm Calm - N/A   Scattered Clouds
3:20 AM 46.4 °F - 42.8 °F 87% 29.95 in 6.2 mi Calm Calm - N/A   Partly Cloudy
3:50 AM 46.4 °F - 42.8 °F 87% 29.95 in 6.2 mi Calm Calm - N/A   Partly Cloudy
4:20 AM 46.4 °F - 42.8 °F 87% 29.95 in 6.2 mi Calm Calm - N/A   Partly Cloudy
4:50 AM 46.4 °F 44.3 °F 39.2 °F 76% 29.95 in 6.2 mi West 4.6 mph - N/A   Partly Cloudy
5:20 AM 46.4 °F 44.3 °F 39.2 °F 76% 29.95 in 6.2 mi West 4.6 mph - N/A   Partly Cloudy
5:50 AM 46.4 °F 44.3 °F 39.2 °F 76% 29.95 in 6.2 mi West 4.6 mph - N/A   Partly Cloudy
6:20 AM 46.4 °F 43.5 °F 39.2 °F 76% 29.95 in 6.2 mi WNW 5.8 mph - N/A   Partly Cloudy
6:50 AM 44.6 °F 41.4 °F 41.0 °F 87% 29.95 in 6.2 mi WNW 5.8 mph - N/A   Partly Cloudy
7:20 AM 44.6 °F - 41.0 °F 87% 29.95 in 6.2 mi Calm Calm - N/A   Partly Cloudy
7:50 AM 44.6 °F - 41.0 °F 87% 29.95 in 6.2 mi Calm Calm - N/A   Partly Cloudy
8:00 AM 45 °F - 40 °F 78% 29.99 in 6 mi Calm Calm - -   Scattered Clouds
8:20 AM 48.2 °F - 42.8 °F 82% 29.95 in 6.2 mi WNW 4.6 mph - N/A   Partly Cloudy
8:50 AM 48.2 °F - 42.8 °F 82% 29.95 in 6.2 mi WNW 4.6 mph - N/A   Partly Cloudy
9:20 AM 51.8 °F - 44.6 °F 76% 29.95 in 6.2 mi WNW 4.6 mph - N/A   Partly Cloudy
9:50 AM 55.4 °F - 41.0 °F 58% 29.98 in 6.2 mi WNW 4.6 mph - N/A   Partly Cloudy
10:20 AM 55.4 °F - 41.0 °F 58% 29.98 in 6.2 mi West 9.2 mph - N/A   Partly Cloudy
10:50 AM 57.2 °F - 41.0 °F 55% 29.98 in 6.2 mi West 9.2 mph - N/A   Partly Cloudy
11:20 AM 57.2 °F - 41.0 °F 55% 29.98 in 6.2 mi WNW 9.2 mph - N/A   Partly Cloudy
11:50 AM 59.0 °F - 39.2 °F 48% 29.95 in - WNW 9.2 mph - N/A   Clear
12:20 PM 59.0 °F - 39.2 °F 48% 29.95 in - WNW 9.2 mph - N/A   Clear
12:50 PM 60.8 °F - 41.0 °F 48% 29.92 in - West 5.8 mph - N/A   Clear
1:20 PM 60.8 °F - 41.0 °F 48% 29.92 in - WNW 11.5 mph - N/A   Clear
1:50 PM 60.8 °F - 42.8 °F 52% 29.92 in 6.2 mi WNW 16.1 mph - N/A   Partly Cloudy
2:00 PM 60 °F - 43 °F 41% 29.92 in 6 mi WNW 16.1 mph - -   Scattered Clouds
2:20 PM 60.8 °F - 42.8 °F 52% 29.92 in 6.2 mi West 17.3 mph - N/A   Partly Cloudy
2:50 PM 60.8 °F - 46.4 °F 59% 29.89 in 6.2 mi West 13.8 mph 25.3 mph N/A   Partly Cloudy
3:20 PM 60.8 °F - 46.4 °F 59% 29.89 in 6.2 mi West 18.4 mph - N/A   Partly Cloudy
3:50 PM 59.0 °F - 50.0 °F 72% 29.89 in 6.2 mi West 16.1 mph 27.6 mph N/A   Scattered Clouds
4:20 PM 59.0 °F - 50.0 °F 72% 29.89 in 6.2 mi West 13.8 mph 25.3 mph N/A   Scattered Clouds
4:50 PM 59.0 °F - 48.2 °F 67% 29.86 in 6.2 mi West 16.1 mph 27.6 mph N/A   Scattered Clouds
5:20 PM 59.0 °F - 48.2 °F 67% 29.86 in 6.2 mi West 18.4 mph - N/A   Scattered Clouds
5:50 PM 57.2 °F - 48.2 °F 72% 29.83 in 6.2 mi West 16.1 mph 27.6 mph N/A   Scattered Clouds
6:20 PM 57.2 °F - 48.2 °F 72% 29.80 in 6.2 mi West 20.7 mph 32.2 mph N/A   Scattered Clouds
6:50 PM 57.2 °F - 46.4 °F 67% 29.83 in 6.2 mi West 23.0 mph 34.5 mph N/A   Scattered Clouds
7:20 PM 57.2 °F - 46.4 °F 67% 29.83 in 6.2 mi West 18.4 mph 29.9 mph N/A   Scattered Clouds
7:50 PM 57.2 °F - 50.0 °F 77% 29.86 in 6.2 mi West 18.4 mph 29.9 mph N/A   Mostly Cloudy
8:00 PM 57 °F - 49 °F 67% 29.88 in 6 mi West 18.4 mph - -   Partly Cloudy
8:20 PM 57.2 °F - 50.0 °F 77% 29.86 in 6.2 mi West 17.3 mph 28.8 mph N/A   Scattered Clouds
8:50 PM 57.2 °F - 50.0 °F 77% 29.89 in 6.2 mi West 17.3 mph 28.8 mph N/A   Scattered Clouds
9:20 PM 57.2 °F - 50.0 °F 77% 29.89 in 6.2 mi West 13.8 mph 25.3 mph N/A   Scattered Clouds
9:50 PM 57.2 °F - 51.8 °F 82% 29.89 in 6.2 mi West 13.8 mph - N/A   Scattered Clouds
10:20 PM 57.2 °F - 51.8 °F 82% 29.89 in 6.2 mi NNW 5.8 mph - N/A   Scattered Clouds
11:50 PM 55.4 °F - 46.4 °F 72% 29.95 in 6.2 mi North 9.2 mph - N/A   Scattered Clouds